Precipitable_Water
0.89 0.90 0.96 1.03 1.13 1.13 1.12 1.10 1.06 1.01 0.89 0.73 0.89 1.00 1.04 1.04 1.06 1.05 1.12 1.11 1.14 1.15 1.14 1.14 1.17 1.18 1.09 1.04 1.03 1.12 1.16 1.02 0.99
0.83 0.83 0.90 0.93 0.97 1.06 1.02 1.05 1.09 1.01 0.91 0.97 1.02 1.08 1.09 1.07 1.08 1.12 1.14 1.16 1.22 1.30 1.28 1.26 1.27 1.34 1.38 1.44 1.43 1.37 1.30 1.27 1.37
0.87 0.85 0.86 0.90 0.94 0.99 0.96 0.94 0.91 0.91 0.96 0.96 0.99 1.08 1.12 1.11 1.12 1.11 1.12 1.16 1.21 1.16 1.15 1.16 1.19 1.21 1.25 1.29 1.36 1.42 1.47 1.47 1.45
0.95 0.94 0.94 0.95 0.95 0.94 0.92 0.93 0.97 1.00 1.03 1.06 1.09 1.13 1.16 1.14 1.12 1.11 1.12 1.15 1.16 1.13 1.12 1.14 1.17 1.14 1.14 1.15 1.15 1.20 1.24 1.30 1.36
1.00 1.03 1.06 1.08 1.07 1.05 1.03 1.02 1.04 1.07 1.10 1.11 1.14 1.14 1.14 1.13 1.09 1.08 1.08 1.09 1.09 1.07 1.12 1.10 1.08 1.08 1.02 0.99 0.98 0.99 0.99 1.01 1.08
1.00 1.02 1.06 1.09 1.11 1.13 1.14 1.16 1.18 1.20 1.17 1.17 1.15 1.08 1.10 1.08 1.00 0.97 0.96 0.98 1.07 1.07 1.05 1.00 1.00 1.01 0.97 0.94 0.90 0.91 0.91 0.91 0.90
1.02 1.01 1.03 1.06 1.10 1.13 1.17 1.20 1.23 1.24 1.18 1.16 1.07 1.02 1.04 0.96 0.89 0.88 0.88 0.90 1.05 1.03 0.96 0.91 0.88 0.86 0.83 0.78 0.75 0.74 0.72 0.70 0.67
1.11 1.08 1.06 1.08 1.09 1.11 1.16 1.19 1.20 1.19 1.18 1.07 1.00 0.99 0.95 0.87 0.84 0.83 0.86 0.90 1.00 0.92 0.82 0.76 0.72 0.69 0.68 0.66 0.64 0.64 0.63 0.63 0.60
1.16 1.09 1.06 1.06 1.09 1.12 1.17 1.19 1.15 1.05 1.06 0.99 0.95 0.92 0.82 0.77 0.75 0.76 0.75 0.91 0.89 0.81 0.73 0.68 0.64 0.60 0.60 0.61 0.60 0.60 0.60 0.59 0.56
1.19 1.13 1.08 1.09 1.12 1.18 1.20 1.22 1.09 1.02 0.99 0.96 0.92 0.77 0.69 0.70 0.71 0.73 0.74 0.76 0.75 0.72 0.67 0.63 0.59 0.56 0.57 0.58 0.59 0.58 0.57 0.56 0.54
1.17 1.14 1.11 1.14 1.17 1.22 1.22 1.16 1.06 1.00 0.96 0.95 0.86 0.71 0.69 0.69 0.68 0.68 0.68 0.67 0.65 0.61 0.57 0.55 0.53 0.52 0.52 0.54 0.56 0.56 0.56 0.55 0.53
1.14 1.10 1.13 1.16 1.20 1.22 1.14 1.06 1.00 0.94 0.92 0.87 0.72 0.70 0.68 0.65 0.66 0.65 0.64 0.61 0.56 0.53 0.51 0.49 0.48 0.46 0.48 0.50 0.54 0.55 0.56 0.55 0.54
1.12 1.09 1.14 1.18 1.17 1.16 1.09 1.04 0.99 0.93 0.84 0.66 0.65 0.65 0.66 0.63 0.66 0.64 0.62 0.59 0.56 0.53 0.49 0.47 0.45 0.44 0.46 0.50 0.52 0.54 0.54 0.54 0.53
1.12 1.13 1.16 1.15 1.11 1.08 1.07 1.02 0.98 0.92 0.71 0.70 0.71 0.70 0.66 0.64 0.65 0.65 0.62 0.60 0.56 0.52 0.51 0.47 0.43 0.42 0.43 0.47 0.50 0.51 0.52 0.51 0.51
1.14 1.14 1.13 1.11 1.06 1.04 1.02 1.02 1.00 0.90 0.77 0.76 0.75 0.73 0.70 0.67 0.65 0.62 0.63 0.61 0.57 0.53 0.49 0.45 0.43 0.43 0.41 0.41 0.43 0.46 0.48 0.48 0.48
1.14 1.13 1.10 1.10 1.07 1.09 1.06 1.02 0.98 0.86 0.83 0.77 0.71 0.70 0.72 0.69 0.70 0.73 0.67 0.61 0.58 0.55 0.51 0.48 0.45 0.42 0.41 0.40 0.41 0.41 0.42 0.43 0.44
1.18 1.13 1.11 1.11 1.09 1.05 1.03 1.01 0.94 0.86 0.81 0.73 0.70 0.65 0.67 0.71 0.70 0.68 0.64 0.62 0.58 0.54 0.52 0.50 0.46 0.42 0.39 0.38 0.39 0.37 0.38 0.40 0.43
1.20 1.16 1.12 1.12 1.12 1.05 1.02 0.98 0.96 0.88 0.81 0.78 0.71 0.64 0.63 0.65 0.63 0.61 0.60 0.56 0.53 0.51 0.49 0.46 0.44 0.41 0.38 0.37 0.36 0.36 0.36 0.38 0.40
1.24 1.20 1.17 1.17 1.13 1.05 1.03 1.01 0.97 0.90 0.79 0.75 0.77 0.70 0.68 0.57 0.51 0.54 0.54 0.52 0.50 0.49 0.46 0.44 0.41 0.38 0.37 0.36 0.35 0.35 0.35 0.37 0.40
1.25 1.21 1.16 1.15 1.10 1.02 0.99 1.00 0.97 0.87 0.77 0.76 0.73 0.65 0.59 0.54 0.50 0.47 0.48 0.51 0.50 0.48 0.45 0.42 0.38 0.36 0.34 0.32 0.32 0.34 0.35 0.36 0.38
Wind_Speed
7 7 7 7 7 7 7 7 8 8 8 8 7 8 8 9 9 8 9 10 10 11 11 12 12 12 13 13 13 13 13 13 13
7 7 8 8 8 8 8 8 9 9 8 9 9 9 9 9 9 9 10 10 10 10 10 10 10 10 12 13 14 14 14 14 14
8 7 7 8 8 8 8 8 8 8 9 9 9 9 9 9 9 9 9 10 10 11 12 12 13 13 13 13 12 11 11 12 12
8 7 7 7 7 8 8 8 8 9 9 9 9 9 10 10 10 10 11 11 12 13 13 13 13 13 13 13 13 14 14 14 14
8 8 8 8 8 8 8 8 8 9 9 9 10 11 11 11 11 11 12 13 13 13 13 13 14 13 14 14 14 15 14 15 15
10 10 9 9 9 9 9 9 9 10 10 11 11 12 11 12 12 13 14 14 14 14 15 15 15 15 15 15 15 16 16 17 17
12 11 11 11 10 10 10 10 11 11 12 12 12 12 13 13 14 14 15 15 14 15 16 16 17 17 16 16 16 16 16 16 17
14 13 13 12 12 12 12 12 12 13 14 14 14 14 15 15 16 16 17 16 16 16 17 17 17 17 17 17 17 17 17 17 17
16 15 14 14 14 13 13 13 13 14 14 15 16 16 16 16 16 17 17 16 17 17 17 17 17 17 17 17 17 17 18 19 19
17 17 16 16 16 15 14 15 14 15 15 16 17 17 17 17 17 17 17 17 17 18 18 18 18 18 18 18 18 19 20 20 20
19 18 18 17 17 17 17 16 16 17 17 17 17 17 17 17 18 17 18 18 18 18 18 18 19 19 19 19 20 21 21 22 22
20 20 19 18 18 18 17 17 17 18 18 18 18 18 18 18 18 18 17 18 18 18 19 19 19 20 21 21 22 23 23 24 24
20 19 19 19 18 17 17 18 18 18 18 18 19 19 20 19 19 18 18 18 18 19 19 20 21 22 22 23 24 25 25 26 26
20 20 20 19 19 19 19 19 18 18 18 18 19 20 20 20 20 19 19 19 19 20 21 22 22 23 24 25 26 27 28 29 29
21 21 20 19 19 19 18 18 18 18 18 19 20 20 20 19 19 19 20 20 21 22 23 23 24 25 26 27 28 29 30 31 32
23 22 21 20 20 19 18 18 18 19 19 20 20 21 20 20 19 21 21 22 23 24 24 25 27 28 29 30 30 31 32 33 34
24 24 23 22 21 20 19 19 19 19 20 20 21 21 21 22 21 22 23 23 24 24 26 28 29 31 31 32 33 33 34 35 36
26 25 25 24 23 21 21 20 20 20 20 21 21 20 20 21 22 22 23 24 25 26 28 30 31 32 33 34 35 36 37 38 39
29 27 26 26 24 23 23 22 22 21 21 21 21 22 22 21 22 23 24 25 27 29 30 32 33 33 34 35 36 37 38 40 41
31 29 27 27 26 25 24 24 23 22 21 22 22 22 22 23 24 25 26 27 29 32 32 33 34 34 35 37 38 39 41 43 44
Wind_Direction
254 251 249 248 248 249 251 254 257 262 268 267 265 270 279 284 280 280 288 296 299 299 301 300 297 297 296 293 292 290 288 286 285
254 252 250 251 252 253 257 260 262 265 266 266 270 273 281 284 279 283 289 294 301 302 303 306 310 308 309 294 292 290 287 285 285
252 252 251 251 253 253 257 258 261 264 267 268 270 275 281 283 280 285 289 294 298 300 301 301 303 301 299 298 298 303 301 290 290
248 248 249 250 252 254 256 259 263 267 269 272 274 276 279 281 281 284 288 292 296 297 299 300 301 301 298 297 295 293 291 290 289
247 248 250 250 252 256 259 263 266 269 272 275 277 281 281 279 281 284 289 292 295 296 297 299 299 300 301 297 294 292 291 289 287
250 251 252 253 256 258 261 265 268 272 276 277 281 283 282 280 282 286 289 291 292 294 296 298 297 296 298 299 297 294 290 288 286
253 252 253 256 258 260 263 268 271 274 277 280 282 285 283 283 285 288 290 292 291 294 296 296 296 294 294 295 296 295 294 292 290
253 254 254 255 257 261 265 269 274 277 276 282 282 285 284 282 284 287 289 289 289 293 295 296 296 294 292 293 294 294 294 293 293
253 254 255 256 257 261 266 271 275 279 279 280 282 284 284 283 285 288 289 287 289 291 294 296 296 294 293 291 292 293 294 294 293
252 254 255 256 257 261 266 272 276 281 282 282 283 284 284 284 285 287 287 287 288 291 292 294 295 293 292 291 291 292 293 293 293
251 254 256 257 258 261 267 270 275 280 283 283 283 283 284 284 285 285 286 287 288 290 292 292 293 292 292 291 291 291 292 293 292
251 253 255 257 258 261 265 271 276 280 282 282 282 282 284 284 284 285 286 287 289 290 291 292 293 292 292 290 291 290 291 292 292
250 252 254 255 258 260 266 272 278 280 280 281 282 284 284 284 281 282 284 288 289 290 291 292 293 293 292 291 291 290 291 292 291
250 252 253 254 259 264 268 273 276 278 280 282 284 286 287 282 280 279 283 286 289 290 291 292 292 293 293 293 292 290 290 291 291
250 252 252 255 259 263 267 270 275 277 279 284 286 286 287 284 280 278 281 285 288 290 291 292 293 294 294 293 292 292 291 290 290
250 251 251 255 258 262 265 271 274 278 281 284 287 286 284 282 281 282 282 284 287 290 290 291 293 294 294 293 293 292 291 290 291
249 249 250 253 257 259 264 270 275 278 284 284 287 287 283 282 281 283 284 285 288 290 292 293 294 294 293 293 293 292 292 291 291
248 249 252 253 255 258 262 268 273 278 285 284 286 287 283 285 286 285 286 287 289 291 293 294 295 295 294 294 293 293 292 292 292
247 250 251 252 255 258 262 268 272 276 282 284 285 287 283 283 287 288 288 289 291 293 295 295 296 296 296 295 295 294 293 293 293
246 248 250 252 255 258 261 266 271 275 277 285 284 285 286 285 286 288 290 291 292 294 295 296 296 296 297 297 296 296 295 294 294